| time (UTC) | temp F | wind direction | speed MPH | gust MPH | rain 1hr in | rain 24hr in | rain mn in | humidity % | barometer mb |
| 20260906050016 | 70 | 0.0 | 0.0 | 0.00 | 0.00 | 0.00 | 88 | 1017.4 | |
| 20260906045017 | 70 | 0.0 | 2.0 | 0.00 | 0.00 | 0.00 | 88 | 1017.5 | |
| 20260906044017 | 70 | 0.0 | 1.0 | 0.00 | 0.00 | 0.00 | 87 | 1017.3 | |
| 20260906043017 | 70 | 0.0 | 1.0 | 0.00 | 0.00 | 0.00 | 87 | 1017.1 | |
| 20260906042017 | 70 | 0.0 | 1.0 | 0.00 | 0.00 | 0.00 | 87 | 1016.9 | |
| 20260906041017 | 70 | 0.0 | 2.0 | 0.00 | 0.00 | 0.00 | 87 | 1016.8 | |
| 20260906040017 | 70 | 0.0 | 2.0 | 0.00 | 0.00 | 0.00 | 87 | 1016.7 | |
| 20260906035016 | 70 | 0.0 | 1.0 | 0.00 | 0.00 | 0.00 | 86 | 1016.7 | |
| 20260906034017 | 70 | 0.0 | 2.0 | 0.00 | 0.00 | 0.00 | 86 | 1016.7 | |
| 20260906033017 | 70 | 0.0 | 1.0 | 0.00 | 0.01 | 0.00 | 86 | 1016.5 | |
| 20260906032017 | 71 | 0.0 | 2.0 | 0.00 | 0.01 | 0.00 | 86 | 1016.6 | |
| 20260906031016 | 71 | 0.0 | 1.0 | 0.00 | 0.01 | 0.00 | 86 | 1016.7 | |
| 20260906030016 | 71 | 0.0 | 0.0 | 0.00 | 0.01 | 0.00 | 86 | 1016.7 | |
| 20260906025016 | 71 | 0.0 | 1.0 | 0.00 | 0.01 | 0.00 | 85 | 1016.8 | |
| 20260906024017 | 71 | 0.0 | 1.0 | 0.00 | 0.01 | 0.00 | 85 | 1016.6 | |
| 20260906023016 | 71 | 0.0 | 3.0 | 0.00 | 0.01 | 0.00 | 85 | 1016.5 | |
| 20260906022017 | 71 | 0.0 | 1.0 | 0.00 | 0.01 | 0.00 | 84 | 1016.4 | |
| 20260906021016 | 71 | 0.0 | 1.0 | 0.00 | 0.01 | 0.00 | 84 | 1016.3 | |
| 20260906020017 | 71 | 0.0 | 2.0 | 0.00 | 0.01 | 0.00 | 84 | 1016.4 | |
| 20260906015017 | 72 | 0.0 | 1.0 | 0.00 | 0.01 | 0.00 | 84 | 1016.6 | |
| 20260906014017 | 72 | 0.0 | 1.0 | 0.00 | 0.01 | 0.00 | 84 | 1016.6 | |
| 20260906013017 | 72 | 0.0 | 2.0 | 0.00 | 0.01 | 0.00 | 84 | 1016.6 | |
| 20260906012017 | 72 | 0.0 | 3.0 | 0.00 | 0.01 | 0.00 | 84 | 1016.7 | |
| 20260906011017 | 72 | 0.0 | 1.0 | 0.00 | 0.01 | 0.00 | 84 | 1016.6 | |
| 20260906010017 | 72 | 0.0 | 2.0 | 0.00 | 0.01 | 0.00 | 83 | 1016.3 | |
| 20260906005016 | 72 | 0.0 | 2.0 | 0.00 | 0.01 | 0.00 | 83 | 1016.2 | |
| 20260906004017 | 72 | 0.0 | 2.0 | 0.00 | 0.01 | 0.00 | 83 | 1016.0 | |
| 20260906003017 | 72 | 45 | 1.0 | 6.0 | 0.00 | 0.01 | 0.00 | 83 | 1016.0 |
| 20260906002016 | 72 | 45 | 1.0 | 3.0 | 0.00 | 0.01 | 0.00 | 83 | 1016.0 |
| 20260906001016 | 72 | 0.0 | 2.0 | 0.00 | 0.01 | 0.00 | 83 | 1016.0 | |
| 20260906000017 | 72 | 0.0 | 3.0 | 0.00 | 0.01 | 0.00 | 83 | 1015.9 | |
| 20260905235017 | 73 | 45 | 1.0 | 3.0 | 0.00 | 0.01 | 0.00 | 82 | 1015.8 |
| 20260905234017 | 73 | 45 | 1.0 | 3.0 | 0.00 | 0.01 | 0.00 | 81 | 1016.0 |
| 20260905233017 | 74 | 45 | 2.0 | 4.0 | 0.00 | 0.01 | 0.00 | 80 | 1015.9 |
| 20260905232017 | 74 | 45 | 1.0 | 3.0 | 0.00 | 0.01 | 0.00 | 80 | 1015.8 |
| 20260905231017 | 75 | 45 | 2.0 | 7.0 | 0.00 | 0.01 | 0.00 | 79 | 1015.7 |
| 20260905230017 | 76 | 45 | 1.0 | 3.0 | 0.00 | 0.01 | 0.00 | 79 | 1015.6 |
| 20260905225016 | 76 | 68 | 1.0 | 3.0 | 0.00 | 0.01 | 0.00 | 78 | 1015.5 |
| 20260905224017 | 77 | 68 | 1.0 | 4.0 | 0.00 | 0.01 | 0.00 | 77 | 1015.5 |
| 20260905223017 | 78 | 0.0 | 3.0 | 0.00 | 0.01 | 0.00 | 77 | 1015.4 | |
| 20260905222016 | 79 | 68 | 1.0 | 3.0 | 0.00 | 0.01 | 0.00 | 76 | 1015.4 |
| 20260905221016 | 79 | 0.0 | 2.0 | 0.00 | 0.01 | 0.00 | 76 | 1015.4 | |
| 20260905220017 | 80 | 45 | 1.0 | 3.0 | 0.00 | 0.01 | 0.00 | 75 | 1015.4 |
| 20260905215016 | 80 | 68 | 1.0 | 2.0 | 0.00 | 0.01 | 0.00 | 75 | 1015.3 |
| 20260905214016 | 81 | 90 | 1.0 | 3.0 | 0.00 | 0.01 | 0.00 | 74 | 1015.3 |
| 20260905213016 | 81 | 0.0 | 2.0 | 0.00 | 0.01 | 0.00 | 72 | 1015.1 | |
| 20260905212017 | 82 | 90 | 1.0 | 3.0 | 0.00 | 0.01 | 0.00 | 70 | 1015.0 |
| 20260905211017 | 82 | 0.0 | 2.0 | 0.00 | 0.01 | 0.00 | 70 | 1014.9 | |
| 20260905210017 | 82 | 0.0 | 2.0 | 0.00 | 0.01 | 0.00 | 71 | 1014.9 | |
| 20260905205016 | 83 | 23 | 1.0 | 4.0 | 0.00 | 0.01 | 0.00 | 69 | 1015.2 |
| 20260905204016 | 83 | 0.0 | 2.0 | 0.00 | 0.01 | 0.00 | 70 | 1015.1 | |
| 20260905203017 | 82 | 0.0 | 1.0 | 0.00 | 0.01 | 0.00 | 73 | 1015.2 | |
| 20260905202016 | 81 | 90 | 1.0 | 2.0 | 0.00 | 0.01 | 0.00 | 75 | 1015.1 |
| 20260905201017 | 80 | 45 | 1.0 | 3.0 | 0.00 | 0.01 | 0.00 | 74 | 1015.1 |
| 20260905200016 | 80 | 0.0 | 2.0 | 0.00 | 0.01 | 0.00 | 77 | 1015.2 | |
| 20260905195016 | 79 | 0.0 | 2.0 | 0.00 | 0.01 | 0.00 | 79 | 1015.2 | |
| 20260905194016 | 77 | 0.0 | 2.0 | 0.00 | 0.01 | 0.00 | 80 | 1015.4 | |
| 20260905193017 | 77 | 0.0 | 1.0 | 0.00 | 0.01 | 0.00 | 81 | 1015.4 | |
| 20260905192016 | 77 | 0.0 | 2.0 | 0.00 | 0.01 | 0.00 | 80 | 1015.6 | |
| 20260905191017 | 77 | 0.0 | 2.0 | 0.00 | 0.01 | 0.00 | 80 | 1015.6 | |
| 20260905190016 | 78 | 0.0 | 1.0 | 0.00 | 0.01 | 0.00 | 81 | 1015.7 | |
| 20260905185017 | 77 | 0.0 | 1.0 | 0.00 | 0.01 | 0.00 | 80 | 1015.6 | |
| 20260905184016 | 77 | 0.0 | 1.0 | 0.00 | 0.01 | 0.00 | 80 | 1015.7 | |
| 20260905183016 | 77 | 0.0 | 1.0 | 0.00 | 0.01 | 0.00 | 81 | 1015.7 | |
| 20260905182016 | 77 | 0.0 | 1.0 | 0.00 | 0.01 | 0.00 | 82 | 1015.8 | |
| 20260905181017 | 77 | 0.0 | 1.0 | 0.00 | 0.01 | 0.00 | 82 | 1015.8 | |
| 20260905180017 | 76 | 0.0 | 0.0 | 0.00 | 0.01 | 0.00 | 82 | 1015.7 | |
| 20260905175017 | 76 | 0.0 | 2.0 | 0.00 | 0.01 | 0.00 | 81 | 1015.6 | |
| 20260905174016 | 76 | 0.0 | 1.0 | 0.00 | 0.01 | 0.00 | 82 | 1015.6 | |
| 20260905173016 | 76 | 0.0 | 2.0 | 0.00 | 0.01 | 0.00 | 82 | 1015.6 | |
| 20260905172016 | 76 | 68 | 1.0 | 2.0 | 0.00 | 0.01 | 0.00 | 81 | 1015.6 |
| 20260905171016 | 77 | 45 | 1.0 | 3.0 | 0.00 | 0.01 | 0.00 | 81 | 1015.7 |
| 20260905170016 | 77 | 0.0 | 2.0 | 0.00 | 0.01 | 0.00 | 81 | 1015.8 | |
| 20260905165017 | 77 | 0.0 | 1.0 | 0.00 | 0.01 | 0.00 | 82 | 1015.9 | |
| 20260905164016 | 77 | 0.0 | 1.0 | 0.00 | 0.01 | 0.00 | 82 | 1015.8 | |
| 20260905163016 | 77 | 0.0 | 2.0 | 0.00 | 0.01 | 0.00 | 82 | 1015.8 | |
| 20260905162017 | 77 | 0.0 | 1.0 | 0.00 | 0.01 | 0.00 | 82 | 1015.6 | |
| 20260905161017 | 77 | 0.0 | 0.0 | 0.00 | 0.01 | 0.00 | 82 | 1015.8 | |
| 20260905160017 | 77 | 0.0 | 1.0 | 0.00 | 0.01 | 0.00 | 82 | 1015.8 | |
| 20260905155016 | 77 | 0.0 | 2.0 | 0.00 | 0.01 | 0.00 | 82 | 1015.5 | |
| 20260905154017 | 77 | 0.0 | 2.0 | 0.00 | 0.01 | 0.00 | 83 | 1015.6 | |
| 20260905153016 | 77 | 0 | 1.0 | 3.0 | 0.00 | 0.01 | 0.00 | 83 | 1015.4 |
| 20260905152016 | 77 | 45 | 1.0 | 3.0 | 0.00 | 0.01 | 0.00 | 85 | 1015.3 |
| 20260905151016 | 76 | 45 | 1.0 | 3.0 | 0.00 | 0.01 | 0.00 | 86 | 1015.3 |
| 20260905150016 | 75 | 45 | 1.0 | 2.0 | 0.00 | 0.01 | 0.00 | 87 | 1015.1 |
| 20260905145016 | 75 | 0 | 1.0 | 2.0 | 0.00 | 0.01 | 0.00 | 88 | 1015.2 |
| 20260905144016 | 75 | 0.0 | 2.0 | 0.00 | 0.01 | 0.00 | 89 | 1015.1 | |
| 20260905143017 | 74 | 0.0 | 2.0 | 0.00 | 0.01 | 0.00 | 89 | 1015.1 | |
| 20260905142017 | 74 | 0 | 1.0 | 3.0 | 0.00 | 0.01 | 0.00 | 90 | 1015.2 |
| 20260905141016 | 74 | 0.0 | 1.0 | 0.00 | 0.01 | 0.00 | 90 | 1015.2 | |
| 20260905140018 | 74 | 0.0 | 2.0 | 0.00 | 0.01 | 0.00 | 91 | 1015.0 | |
| 20260905135016 | 74 | 0.0 | 2.0 | 0.00 | 0.01 | 0.00 | 91 | 1015.0 | |
| 20260905134016 | 74 | 0.0 | 2.0 | 0.00 | 0.01 | 0.00 | 91 | 1015.0 | |
| 20260905133016 | 73 | 0.0 | 0.0 | 0.00 | 0.01 | 0.00 | 92 | 1015.1 | |
| 20260905132016 | 73 | 0.0 | 0.0 | 0.00 | 0.01 | 0.00 | 92 | 1015.4 | |
| 20260905131016 | 73 | 0.0 | 1.0 | 0.00 | 0.01 | 0.00 | 92 | 1015.1 | |
| 20260905130016 | 72 | 0.0 | 1.0 | 0.00 | 0.01 | 0.00 | 92 | 1014.7 | |
| 20260905125016 | 72 | 0.0 | 1.0 | 0.00 | 0.01 | 0.00 | 92 | 1014.7 | |
| 20260905124017 | 72 | 0.0 | 2.0 | 0.00 | 0.01 | 0.00 | 92 | 1014.5 | |
| 20260905123017 | 72 | 0.0 | 1.0 | 0.00 | 0.01 | 0.00 | 91 | 1014.3 | |
| 20260905122017 | 72 | 0.0 | 1.0 | 0.00 | 0.01 | 0.00 | 91 | 1014.1 | |
| 20260905121016 | 72 | 0.0 | 1.0 | 0.00 | 0.01 | 0.00 | 91 | 1014.1 | |
| 20260905120016 | 72 | 0.0 | 1.0 | 0.00 | 0.01 | 0.00 | 92 | 1014.0 | |
| 20260905115016 | 73 | 0.0 | 1.0 | 0.00 | 0.01 | 0.00 | 92 | 1013.8 | |
| 20260905114017 | 73 | 0.0 | 1.0 | 0.00 | 0.01 | 0.00 | 91 | 1013.7 | |
| 20260905113016 | 73 | 0.0 | 1.0 | 0.00 | 0.01 | 0.00 | 91 | 1013.6 | |
| 20260905112017 | 73 | 0.0 | 1.0 | 0.00 | 0.01 | 0.00 | 91 | 1013.5 | |
| 20260905111017 | 73 | 0.0 | 1.0 | 0.00 | 0.01 | 0.00 | 92 | 1013.4 | |
| 20260905110017 | 73 | 0.0 | 1.0 | 0.00 | 0.01 | 0.00 | 92 | 1013.4 | |
| 20260905105016 | 73 | 0.0 | 0.0 | 0.00 | 0.01 | 0.00 | 92 | 1013.4 | |
| 20260905104016 | 73 | 0.0 | 1.0 | 0.00 | 0.01 | 0.00 | 92 | 1013.2 | |
| 20260905103017 | 73 | 0.0 | 0.0 | 0.00 | 0.01 | 0.00 | 91 | 1013.4 | |
| 20260905102016 | 73 | 0.0 | 0.0 | 0.00 | 0.01 | 0.00 | 91 | 1013.3 | |
| 20260905101016 | 74 | 0.0 | 0.0 | 0.00 | 0.01 | 0.00 | 91 | 1013.3 | |
| 20260905100016 | 74 | 0.0 | 0.0 | 0.00 | 0.01 | 0.00 | 91 | 1013.4 | |
| 20260905095016 | 74 | 0.0 | 0.0 | 0.00 | 0.01 | 0.00 | 91 | 1013.3 | |
| 20260905094017 | 74 | 0.0 | 0.0 | 0.00 | 0.01 | 0.00 | 92 | 1013.3 | |
| 20260905093016 | 74 | 0.0 | 0.0 | 0.00 | 0.01 | 0.00 | 92 | 1013.1 | |
| 20260905092016 | 74 | 0.0 | 0.0 | 0.00 | 0.01 | 0.00 | 92 | 1013.0 | |
| 20260905091016 | 74 | 0.0 | 0.0 | 0.00 | 0.01 | 0.00 | 91 | 1012.9 | |
| 20260905090016 | 74 | 0.0 | 0.0 | 0.00 | 0.01 | 0.00 | 91 | 1012.9 | |
| 20260905085016 | 74 | 0.0 | 0.0 | 0.00 | 0.01 | 0.00 | 91 | 1013.0 | |
| 20260905084017 | 74 | 0.0 | 0.0 | 0.00 | 0.01 | 0.00 | 91 | 1013.0 | |
| 20260905083016 | 74 | 0.0 | 0.0 | 0.00 | 0.01 | 0.00 | 91 | 1013.0 | |
| 20260905082016 | 74 | 0.0 | 0.0 | 0.00 | 0.01 | 0.00 | 91 | 1013.1 | |
| 20260905081017 | 74 | 0.0 | 0.0 | 0.00 | 0.01 | 0.00 | 91 | 1013.0 | |
| 20260905080017 | 74 | 0.0 | 0.0 | 0.00 | 0.01 | 0.00 | 91 | 1013.0 | |
| 20260905075017 | 74 | 0.0 | 0.0 | 0.00 | 0.01 | 0.00 | 91 | 1012.9 | |
| 20260905074017 | 74 | 0.0 | 0.0 | 0.00 | 0.01 | 0.00 | 91 | 1012.8 | |
| 20260905073016 | 74 | 0.0 | 0.0 | 0.00 | 0.01 | 0.00 | 91 | 1012.9 | |
| 20260905072016 | 74 | 0.0 | 0.0 | 0.00 | 0.01 | 0.00 | 91 | 1012.8 | |
| 20260905071016 | 74 | 0.0 | 0.0 | 0.00 | 0.01 | 0.00 | 91 | 1012.9 | |
| 20260905070016 | 74 | 0.0 | 0.0 | 0.00 | 0.01 | 0.00 | 91 | 1012.9 | |
| 20260905065017 | 74 | 0.0 | 0.0 | 0.00 | 0.01 | 0.00 | 91 | 1012.9 | |
| 20260905064016 | 74 | 0.0 | 0.0 | 0.00 | 0.01 | 0.00 | 91 | 1012.9 | |
| 20260905063016 | 74 | 0.0 | 0.0 | 0.00 | 0.01 | 0.00 | 90 | 1013.0 | |
| 20260905062016 | 74 | 0.0 | 0.0 | 0.00 | 0.01 | 0.00 | 90 | 1013.1 | |
| 20260905061017 | 74 | 0.0 | 0.0 | 0.00 | 0.01 | 0.00 | 90 | 1013.1 | |
| 20260905060016 | 74 | 0.0 | 0.0 | 0.00 | 0.01 | 0.00 | 90 | 1013.2 | |
| 20260905055016 | 74 | 0.0 | 0.0 | 0.00 | 0.01 | 0.00 | 90 | 1013.4 | |
| 20260905054016 | 74 | 0.0 | 0.0 | 0.00 | 0.01 | 0.00 | 89 | 1013.4 | |
| 20260905053016 | 74 | 0.0 | 0.0 | 0.00 | 0.01 | 0.00 | 89 | 1013.4 | |
| 20260905052017 | 74 | 0.0 | 0.0 | 0.00 | 0.01 | 0.00 | 89 | 1013.3 | |
| 20260905051016 | 75 | 0.0 | 0.0 | 0.00 | 0.01 | 0.00 | 89 | 1013.2 |